Location: Mary A Oil Field
(38.5606°N, 98.9545°W)
Time: 16:49:43
(UTC+00:00)

Envisat - Pass Details

Date: 20 January 2020
Orbit: 764 x 766 km, 98.1° (Epoch: 25 February)

Event Time Altitude Azimuth Distance (km) Brightness Sun altitude
Rises 00:29:11 0° 167° (SSE) 3,217 6.3 -9.2°
Reaches altitude 10° 00:31:29 10° 168° (SSE) 2,295 5.6 -9.7°
Maximum altitude 00:36:33 85° 257° (WSW) 774 3.1 -10.6°
Drops below altitude 10° 00:41:40 10° 346° (NNW) 2,311 5.5 -11.6°
Sets 00:43:59 0° 347° (NNW) 3,241 6.2 -12.0°
